Location: Columbus
(35.2256°N, 82.1549°W)
Time: 03:27:13
(UTC-05:00)

N. Korean satellite - Visible Passes

Search period start: 30 November 2021 00:00
Search period end: 10 December 2021 00:00
Orbit: 447 x 495 km, 97.3° (Epoch: 29 November)

Date Brightness Start Highest point End Pass type
(mag) Time Alt. Az. Time Alt. Az. Time Alt. Az.
30 Nov 9.2 04:58:27 10° NE 05:00:57 19° E 05:03:24 10° SE visible
30 Nov 7.9 06:31:43 10° NNW 06:33:58 17° WNW 06:36:13 10° WSW visible
01 Dec 6.7 06:02:27 10° N 06:05:40 41° WNW 06:08:50 10° SSW visible
01 Dec 10.3 18:08:56 10° WSW 18:09:43 11° W 18:10:29 10° W visible
02 Dec 6.7 05:33:52 10° NNE 05:37:13 67° E 05:40:34 10° S visible
02 Dec 9.2 17:38:05 10° SSW 17:41:04 25° W 17:44:03 10° NW visible
03 Dec 8.7 05:05:52 10° NE 05:08:40 24° E 05:11:28 10° SSE visible
03 Dec 8.2 06:39:53 10° NW 06:41:37 13° WNW 06:43:19 10° W visible
04 Dec 7.1 06:10:15 10° N 06:13:18 32° WNW 06:16:19 10° SW visible
05 Dec 6.3 05:41:28 10° NNE 05:44:52 90° SE 05:48:14 10° SSW visible
05 Dec 9.6 17:46:06 10° SW 17:48:45 20° W 17:51:23 10° NW visible
06 Dec 8.2 05:13:15 10° NNE 05:16:18 31° E 05:19:21 10° SSE visible
06 Dec 8.4 06:48:20 10° NW 06:49:08 11° WNW 06:49:57 10° W visible
07 Dec 9.7 04:46:03 10° ENE 04:47:38 13° E 04:49:13 10° ESE visible
07 Dec 7.4 06:18:00 10° NNW 06:20:49 25° WNW 06:23:39 10° SW visible
08 Dec 6.2 05:49:02 10° N 05:52:23 68° WNW 05:55:45 10° SSW visible
08 Dec 9.7 17:54:10 10° SW 17:56:20 16° W 17:58:30 10° NW visible
09 Dec 7.7 05:20:37 10° NNE 05:23:51 41° E 05:27:03 10° S visible
